Terug naar catalogus

DELTA 1 R/B

ActiefPO
NORAD 979·ROCKET BODY·🇺🇸 United States

Gelanceerd Jan 22, 1965 vanaf Cape Canaveral Space Force Station

Loading…

Volgende Passages (komende 24 uur)

TLE

VersSource: Space-Track

Epoch: Sep 14, 2026, 10:14 UTC

1 00979U 65004B   26257.42679564  .00000055  00000-0  76684-4 0  9990
2 00979  96.4149  71.1891 1139769  67.6325 304.1431 12.15547731726403

Volg DELTA 1 R/B in realtime met AllMySat

Download on the App Store